AZU8720 SBBE-KFLL

Flight info

Callsign AZU8720
Flight time 6h 0m
Altitude 34000
Route ILMAN UZ41 OTONI UG449 KORTO DCT ANADA L452 BQN R763 MUNOZ L452 RNTRY R763 GTK DCT ZQA OLAHS3
Aircraft A320/M-SDE3FGHIRWY/LB1

Departure

Time 2026-05-07 21:11
Airport Val de Cans/Júlio Cezar Ribeiro International Airport (SBBE)

Arrival

Time 2026-05-08 03:11
Airport Fort Lauderdale Hollywood International Airport (KFLL)
Time Latitude Longitude Altitude Speed Heading
2026-05-07 20:52 -1.38992 -48.47903 56 ft 0 kts 278°
2026-05-07 21:00 -1.38994 -48.47890 56 ft 3 kts 278°
2026-05-07 21:00 -1.38997 -48.47870 54 ft 3 kts 278°
2026-05-07 21:00 -1.39001 -48.47851 53 ft 3 kts 298°
2026-05-07 21:00 -1.39012 -48.47835 50 ft 3 kts 320°
2026-05-07 21:01 -1.39020 -48.47828 50 ft 0 kts 323°
2026-05-07 21:05 -1.39004 -48.47830 52 ft 5 kts
2026-05-07 21:05 -1.38964 -48.47820 60 ft 6 kts 13°
2026-05-07 21:05 -1.38924 -48.47815 56 ft 5 kts
2026-05-07 21:05 -1.38889 -48.47812 56 ft 5 kts
2026-05-07 21:06 -1.38841 -48.47808 56 ft 10 kts
2026-05-07 21:06 -1.38765 -48.47801 55 ft 12 kts
2026-05-07 21:06 -1.38686 -48.47798 55 ft 11 kts 340°
2026-05-07 21:06 -1.38668 -48.47864 54 ft 10 kts 268°
2026-05-07 21:07 -1.38670 -48.47930 52 ft 9 kts 268°
2026-05-07 21:07 -1.38672 -48.47994 51 ft 9 kts 269°
2026-05-07 21:07 -1.38674 -48.48056 50 ft 9 kts 268°
2026-05-07 21:07 -1.38675 -48.48115 49 ft 8 kts 269°
2026-05-07 21:08 -1.38676 -48.48170 48 ft 8 kts 269°
2026-05-07 21:08 -1.38676 -48.48221 47 ft 8 kts 267°
2026-05-07 21:08 -1.38725 -48.48273 46 ft 11 kts 224°
2026-05-07 21:08 -1.38774 -48.48322 46 ft 9 kts 225°
2026-05-07 21:09 -1.38810 -48.48368 46 ft 8 kts 246°
2026-05-07 21:09 -1.38816 -48.48410 45 ft 0 kts 270°
2026-05-07 21:09 -1.38815 -48.48425 45 ft 9 kts 270°
2026-05-07 21:10 -1.38789 -48.48485 44 ft 5 kts 16°
2026-05-07 21:10 -1.38776 -48.48471 44 ft 4 kts 47°
2026-05-07 21:10 -1.38742 -48.48436 44 ft 23 kts 46°
2026-05-07 21:10 -1.38290 -48.47982 49 ft 111 kts 45°
2026-05-07 21:11 -1.37615 -48.47307 55 ft 161 kts 44°
2026-05-07 21:11 -1.36832 -48.46508 694 ft 157 kts 44°
2026-05-07 21:11 -1.35044 -48.45147 1618 ft 184 kts
2026-05-07 21:12 -1.33790 -48.45537 1876 ft 205 kts 324°
2026-05-07 21:12 -1.33124 -48.46295 1966 ft 227 kts 296°
2026-05-07 21:12 -1.32873 -48.47906 2247 ft 249 kts 265°
2026-05-07 21:12 -1.33202 -48.49680 2593 ft 268 kts 254°
2026-05-07 21:13 -1.33739 -48.51459 3296 ft 272 kts 251°
2026-05-07 21:13 -1.34331 -48.53269 4001 ft 277 kts 251°
2026-05-07 21:13 -1.34911 -48.55116 4720 ft 280 kts 252°
2026-05-07 21:13 -1.35493 -48.56985 5420 ft 283 kts 247°
2026-05-07 21:14 -1.36429 -48.58747 6097 ft 285 kts 233°
2026-05-07 21:14 -1.37742 -48.60230 6776 ft 287 kts 223°
2026-05-07 21:14 -1.39161 -48.61648 7422 ft 290 kts 224°
2026-05-07 21:14 -1.40587 -48.63086 8066 ft 293 kts 224°
2026-05-07 21:15 -1.42024 -48.64551 8730 ft 297 kts 225°
2026-05-07 21:15 -1.43406 -48.66062 9350 ft 300 kts 227°
2026-05-07 21:15 -1.44769 -48.67692 9965 ft 305 kts 234°
2026-05-07 21:15 -1.45807 -48.69614 10145 ft 326 kts 249°
2026-05-07 21:16 -1.46370 -48.71845 10269 ft 346 kts 263°
2026-05-07 21:16 -1.46529 -48.74278 10660 ft 354 kts 266°
2026-05-07 21:16 -1.46692 -48.76784 11207 ft 358 kts 266°
2026-05-07 21:16 -1.46869 -48.79242 11761 ft 361 kts 265°
2026-05-07 21:17 -1.47059 -48.81754 12328 ft 364 kts 265°
2026-05-07 21:17 -1.47252 -48.84282 12873 ft 367 kts 265°
2026-05-07 21:17 -1.47444 -48.86832 13415 ft 370 kts 265°
2026-05-07 21:17 -1.47631 -48.89405 13922 ft 372 kts 266°
2026-05-07 21:18 -1.47816 -48.91991 14393 ft 375 kts 266°
2026-05-07 21:18 -1.48002 -48.94597 14875 ft 377 kts 265°
2026-05-07 21:18 -1.48190 -48.97221 15319 ft 380 kts 265°
2026-05-07 21:18 -1.48379 -48.99867 15781 ft 383 kts 265°
2026-05-07 21:19 -1.48570 -49.02534 16234 ft 385 kts 265°
2026-05-07 21:19 -1.48761 -49.05213 16693 ft 388 kts 265°
2026-05-07 21:19 -1.48940 -49.07905 17171 ft 389 kts 268°
2026-05-07 21:19 -1.48713 -49.10609 17551 ft 393 kts 282°
2026-05-07 21:20 -1.47858 -49.13207 17974 ft 396 kts 295°
2026-05-07 21:20 -1.46414 -49.15561 18309 ft 400 kts 309°
2026-05-07 21:20 -1.44447 -49.17530 18662 ft 401 kts 321°
2026-05-07 21:20 -1.42269 -49.19284 19048 ft 403 kts 321°
2026-05-07 21:21 -1.40089 -49.21055 19408 ft 405 kts 321°
2026-05-07 21:21 -1.37900 -49.22842 19774 ft 407 kts 321°
2026-05-07 21:21 -1.35704 -49.24635 20118 ft 409 kts 321°
2026-05-07 21:21 -1.33493 -49.26441 20456 ft 412 kts 321°
2026-05-07 21:22 -1.31271 -49.28254 20783 ft 414 kts 321°
2026-05-07 21:22 -1.29035 -49.30076 21107 ft 416 kts 321°
2026-05-07 21:22 -1.26786 -49.31906 21434 ft 418 kts 320°
2026-05-07 21:22 -1.24526 -49.33749 21759 ft 420 kts 320°
2026-05-07 21:23 -1.22254 -49.35602 22077 ft 423 kts 320°
2026-05-07 21:23 -1.19971 -49.37462 22391 ft 425 kts 320°
2026-05-07 21:23 -1.17674 -49.39331 22701 ft 427 kts 320°
2026-05-07 21:23 -1.15365 -49.41211 23001 ft 429 kts 320°
2026-05-07 21:24 -1.13045 -49.43101 23315 ft 431 kts 320°
2026-05-07 21:24 -1.10751 -49.44975 23591 ft 433 kts 320°
2026-05-07 21:24 -1.08413 -49.46882 23839 ft 435 kts 320°
2026-05-07 21:24 -1.06061 -49.48795 24101 ft 436 kts 320°
2026-05-07 21:25 -1.03702 -49.50712 24349 ft 438 kts 320°
2026-05-07 21:25 -1.01335 -49.52636 24598 ft 440 kts 320°
2026-05-07 21:25 -0.98958 -49.54569 24847 ft 441 kts 320°
2026-05-07 21:25 -0.96574 -49.56513 25097 ft 443 kts 320°
2026-05-07 21:26 -0.94180 -49.58463 25348 ft 445 kts 320°
2026-05-07 21:26 -0.91781 -49.60418 25593 ft 446 kts 320°
2026-05-07 21:26 -0.89371 -49.62384 25834 ft 448 kts 320°
2026-05-07 21:26 -0.86957 -49.64354 26071 ft 449 kts 320°
2026-05-07 21:27 -0.84530 -49.66328 26302 ft 451 kts 320°
2026-05-07 21:27 -0.82090 -49.68309 26531 ft 453 kts 320°
2026-05-07 21:27 -0.79644 -49.70298 26759 ft 454 kts 320°
2026-05-07 21:27 -0.77190 -49.72297 27000 ft 456 kts 320°
2026-05-07 21:28 -0.74730 -49.74305 27223 ft 457 kts 320°
2026-05-07 21:28 -0.72262 -49.76318 27443 ft 459 kts 320°
2026-05-07 21:28 -0.69786 -49.78334 27678 ft 460 kts 320°
2026-05-07 21:28 -0.67298 -49.80355 27905 ft 462 kts 320°
2026-05-07 21:29 -0.64800 -49.82385 28130 ft 463 kts 320°
2026-05-07 21:29 -0.62299 -49.84423 28355 ft 465 kts 320°
2026-05-07 21:29 -0.59787 -49.86471 28573 ft 466 kts 320°
2026-05-07 21:29 -0.57270 -49.88521 28784 ft 468 kts 320°
2026-05-07 21:30 -0.54739 -49.90578 28989 ft 469 kts 320°
2026-05-07 21:30 -0.52203 -49.92641 29193 ft 471 kts 320°
2026-05-07 21:30 -0.49662 -49.94710 29391 ft 472 kts 320°
2026-05-07 21:30 -0.47112 -49.96790 29582 ft 474 kts 320°
2026-05-07 21:31 -0.44557 -49.98870 29767 ft 475 kts 320°
2026-05-07 21:31 -0.41987 -50.00958 29953 ft 476 kts 320°
2026-05-07 21:31 -0.39414 -50.03051 30118 ft 478 kts 320°
2026-05-07 21:31 -0.36837 -50.05149 30292 ft 478 kts 320°
2026-05-07 21:32 -0.34255 -50.07250 30467 ft 479 kts 320°
2026-05-07 21:32 -0.31673 -50.09352 30646 ft 479 kts 320°
2026-05-07 21:32 -0.29087 -50.11459 30825 ft 480 kts 320°
2026-05-07 21:32 -0.26534 -50.13538 30994 ft 480 kts 320°
2026-05-07 21:33 -0.23947 -50.15641 31207 ft 479 kts 320°
2026-05-07 21:33 -0.21366 -50.17740 31468 ft 477 kts 320°
2026-05-07 21:33 -0.18795 -50.19832 31730 ft 475 kts 320°
2026-05-07 21:33 -0.16236 -50.21914 31966 ft 474 kts 320°
2026-05-07 21:34 -0.13686 -50.23994 32205 ft 473 kts 320°
2026-05-07 21:34 -0.11145 -50.26071 32450 ft 472 kts 320°
2026-05-07 21:34 -0.08610 -50.28143 32713 ft 470 kts 321°
2026-05-07 21:34 -0.06086 -50.30202 32983 ft 468 kts 321°
2026-05-07 21:35 -0.03566 -50.32250 33253 ft 466 kts 321°
2026-05-07 21:35 -0.01056 -50.34285 33501 ft 464 kts 321°
2026-05-07 21:35 0.01448 -50.36315 33774 ft 462 kts 321°
2026-05-07 21:35 0.03936 -50.38338 33900 ft 460 kts 321°
2026-05-07 21:36 0.08847 -50.42336 33922 ft 453 kts 321°
2026-05-07 21:36 0.13737 -50.46314 33920 ft 453 kts 321°
2026-05-07 21:37 0.18626 -50.50293 33923 ft 454 kts 321°
2026-05-07 21:37 0.23512 -50.54273 33920 ft 453 kts 321°
2026-05-07 21:38 0.28398 -50.58253 33934 ft 453 kts 321°
2026-05-07 21:38 0.33282 -50.62233 33921 ft 453 kts 321°
2026-05-07 21:39 0.38172 -50.66213 33914 ft 454 kts 321°
2026-05-07 21:39 0.43067 -50.70200 33906 ft 454 kts 321°
2026-05-07 21:40 0.47967 -50.74189 33914 ft 455 kts 321°
2026-05-07 21:40 0.52878 -50.78186 33913 ft 455 kts 321°
2026-05-07 21:41 0.57792 -50.82182 33915 ft 456 kts 321°
2026-05-07 21:41 0.62704 -50.86190 33915 ft 456 kts 322°
2026-05-07 21:42 0.67630 -50.90202 33902 ft 457 kts 321°
2026-05-07 21:42 0.72544 -50.94197 33904 ft 459 kts 321°
2026-05-07 21:43 0.77498 -50.98222 33907 ft 460 kts 321°
2026-05-07 21:43 0.82489 -51.02233 33909 ft 460 kts 322°
2026-05-07 21:44 0.87491 -51.06228 33919 ft 461 kts 322°
2026-05-07 21:44 0.92495 -51.10233 33920 ft 461 kts 321°
2026-05-07 21:45 0.97500 -51.14254 33917 ft 462 kts 321°
2026-05-07 21:45 1.02506 -51.18270 33922 ft 462 kts 321°
2026-05-07 21:46 1.07525 -51.22284 33919 ft 462 kts 321°
2026-05-07 21:46 1.12543 -51.26311 33934 ft 462 kts 322°
2026-05-07 21:47 1.17557 -51.30333 33926 ft 462 kts 322°
2026-05-07 21:47 1.22571 -51.34358 33920 ft 463 kts 321°
2026-05-07 21:48 1.27592 -51.38392 33926 ft 463 kts 321°
2026-05-07 21:48 1.32616 -51.42418 33928 ft 463 kts 321°
2026-05-07 21:49 1.37642 -51.46450 33929 ft 464 kts 321°
2026-05-07 21:49 1.42669 -51.50491 33929 ft 464 kts 321°
2026-05-07 21:50 1.47664 -51.54497 33944 ft 463 kts 321°
2026-05-07 21:50 1.52692 -51.58528 33938 ft 463 kts 320°
2026-05-07 21:51 1.57719 -51.62563 33944 ft 463 kts 321°
2026-05-07 21:51 1.62749 -51.66594 33940 ft 463 kts 321°
2026-05-07 21:52 1.67778 -51.70626 33936 ft 463 kts 321°
2026-05-07 21:52 1.72802 -51.74663 33927 ft 463 kts 320°
2026-05-07 21:53 1.77824 -51.78700 33940 ft 463 kts 320°
2026-05-07 21:53 1.82851 -51.82734 33944 ft 463 kts 320°
2026-05-07 21:54 1.87874 -51.86753 33945 ft 462 kts 320°
2026-05-07 21:54 1.92884 -51.90778 33945 ft 462 kts 320°
2026-05-07 21:55 1.97884 -51.94803 33945 ft 461 kts 320°
2026-05-07 21:55 2.02879 -51.98825 33947 ft 461 kts 320°
2026-05-07 21:56 2.07881 -52.02842 33941 ft 461 kts 320°
2026-05-07 21:56 2.12879 -52.06853 33946 ft 461 kts 320°
2026-05-07 21:57 2.17870 -52.10862 33939 ft 460 kts 320°
2026-05-07 21:57 2.22855 -52.14866 33941 ft 459 kts 320°
2026-05-07 21:58 2.27836 -52.18868 33944 ft 459 kts 320°
2026-05-07 21:58 2.32813 -52.22868 33938 ft 459 kts 320°
2026-05-07 21:59 2.36954 -52.26192 33938 ft 459 kts 320°
2026-05-07 21:59 2.41929 -52.30189 33940 ft 459 kts 320°
2026-05-07 22:00 2.46903 -52.34185 33923 ft 459 kts 319°
2026-05-07 22:00 2.51876 -52.38189 33921 ft 459 kts 319°
2026-05-07 22:01 2.56853 -52.42189 33926 ft 459 kts 320°
2026-05-07 22:01 2.61836 -52.46182 33927 ft 459 kts 320°
2026-05-07 22:02 2.66795 -52.50204 33925 ft 458 kts 315°
2026-05-07 22:02 2.71380 -52.54622 33923 ft 458 kts 314°
2026-05-07 22:03 2.75970 -52.59055 33918 ft 459 kts 314°
2026-05-07 22:03 2.80569 -52.63478 33916 ft 459 kts 315°
2026-05-07 22:04 2.85146 -52.67876 33926 ft 459 kts 314°
2026-05-07 22:04 2.89747 -52.72309 33922 ft 459 kts 314°
2026-05-07 22:05 2.94352 -52.76746 33922 ft 459 kts 314°
2026-05-07 22:05 2.98954 -52.81178 33935 ft 459 kts 314°
2026-05-07 22:06 3.03552 -52.85609 33940 ft 459 kts 314°
2026-05-07 22:06 3.08141 -52.90041 33934 ft 459 kts 314°
2026-05-07 22:07 3.12738 -52.94475 33931 ft 458 kts 314°
2026-05-07 22:07 3.17337 -52.98893 33936 ft 458 kts 314°
2026-05-07 22:08 3.21928 -53.03318 33916 ft 459 kts 314°
2026-05-07 22:08 3.26517 -53.07758 33916 ft 459 kts 314°
2026-05-07 22:09 3.31113 -53.12204 33918 ft 460 kts 314°
2026-05-07 22:09 3.35722 -53.16644 33927 ft 460 kts 314°
2026-05-07 22:10 3.40332 -53.21076 33934 ft 460 kts 314°
2026-05-07 22:10 3.44937 -53.25511 33935 ft 459 kts 314°
2026-05-07 22:11 3.49527 -53.29952 33936 ft 458 kts 314°
2026-05-07 22:11 3.54112 -53.34383 33937 ft 458 kts 314°
2026-05-07 22:12 3.58692 -53.38807 33942 ft 458 kts 314°
2026-05-07 22:12 3.63277 -53.43229 33938 ft 457 kts 314°
2026-05-07 22:13 3.67826 -53.47619 33935 ft 457 kts 314°
2026-05-07 22:13 3.72434 -53.52065 33935 ft 457 kts 314°
2026-05-07 22:14 3.76968 -53.56458 33930 ft 457 kts 314°
2026-05-07 22:14 3.81532 -53.60880 33930 ft 456 kts 314°
2026-05-07 22:15 3.86099 -53.65294 33929 ft 456 kts 314°
2026-05-07 22:15 3.90676 -53.69701 33929 ft 456 kts 314°
2026-05-07 22:16 3.95239 -53.74115 33936 ft 456 kts 314°
2026-05-07 22:16 3.99798 -53.78531 33928 ft 456 kts 314°
2026-05-07 22:17 4.04362 -53.82953 33929 ft 456 kts 314°
2026-05-07 22:17 4.08926 -53.87378 33915 ft 457 kts 314°
2026-05-07 22:18 4.15782 -53.94014 33925 ft 457 kts 314°
2026-05-07 22:19 4.20353 -53.98439 33925 ft 457 kts 314°
2026-05-07 22:19 4.24925 -54.02869 33924 ft 457 kts 314°
2026-05-07 22:20 4.29498 -54.07299 33923 ft 457 kts 314°
2026-05-07 22:20 4.34070 -54.11724 33923 ft 457 kts 314°
2026-05-07 22:21 4.38637 -54.16153 33927 ft 457 kts 314°
2026-05-07 22:21 4.43206 -54.20579 33928 ft 457 kts 314°
2026-05-07 22:22 4.47771 -54.25009 33932 ft 457 kts 314°
2026-05-07 22:22 4.52335 -54.29432 33930 ft 457 kts 314°
2026-05-07 22:23 4.56908 -54.33859 33925 ft 457 kts 314°
2026-05-07 22:23 4.61481 -54.38288 33930 ft 457 kts 314°
2026-05-07 22:24 4.66051 -54.42721 33922 ft 457 kts 314°
2026-05-07 22:24 4.70634 -54.47139 33926 ft 457 kts 314°
2026-05-07 22:25 4.75236 -54.51526 33932 ft 457 kts 314°
2026-05-07 22:25 4.79809 -54.55884 33934 ft 456 kts 314°
2026-05-07 22:26 4.84417 -54.60304 33931 ft 456 kts 314°
2026-05-07 22:26 4.89001 -54.64700 33933 ft 456 kts 314°
2026-05-07 22:27 4.93602 -54.69094 33934 ft 456 kts 314°
2026-05-07 22:27 4.98166 -54.73451 33930 ft 456 kts 314°
2026-05-07 22:28 5.02755 -54.77846 33938 ft 456 kts 314°
2026-05-07 22:28 5.07340 -54.82242 33937 ft 456 kts 314°
2026-05-07 22:29 5.11925 -54.86634 33939 ft 456 kts 314°
2026-05-07 22:29 5.16505 -54.91031 33936 ft 456 kts 314°
2026-05-07 22:30 5.21085 -54.95427 33934 ft 456 kts 314°
2026-05-07 22:30 5.25672 -54.99815 33928 ft 456 kts 314°
2026-05-07 22:31 5.30258 -55.04209 33924 ft 456 kts 314°
2026-05-07 22:31 5.34837 -55.08603 33929 ft 455 kts 314°
2026-05-07 22:32 5.39412 -55.12996 33927 ft 455 kts 314°
2026-05-07 22:32 5.43990 -55.17382 33928 ft 455 kts 314°
2026-05-07 22:33 5.48130 -55.22143 33923 ft 452 kts 307°
2026-05-07 22:33 5.52140 -55.27010 33919 ft 452 kts 307°
2026-05-07 22:34 5.56153 -55.31876 33932 ft 452 kts 307°
2026-05-07 22:34 5.60161 -55.36748 33935 ft 452 kts 307°
2026-05-07 22:35 5.64165 -55.41620 33934 ft 452 kts 307°
2026-05-07 22:35 5.68168 -55.46490 33943 ft 452 kts 307°
2026-05-07 22:36 5.72170 -55.51357 33946 ft 452 kts 307°
2026-05-07 22:36 5.76167 -55.56218 33943 ft 451 kts 307°
2026-05-07 22:37 5.80162 -55.61079 33940 ft 451 kts 307°
2026-05-07 22:37 5.84134 -55.65908 33939 ft 451 kts 307°
2026-05-07 22:38 5.88155 -55.70800 33940 ft 451 kts 307°
2026-05-07 22:38 5.92137 -55.75653 33946 ft 457 kts 307°
2026-05-07 22:38 5.94163 -55.78124 34076 ft 459 kts 307°
2026-05-07 22:39 5.96196 -55.80602 34269 ft 459 kts 307°
2026-05-07 22:39 5.98225 -55.83074 34483 ft 458 kts 307°
2026-05-07 22:39 6.00250 -55.85540 34699 ft 457 kts 307°
2026-05-07 22:39 6.02274 -55.88004 34910 ft 456 kts 307°
2026-05-07 22:40 6.04287 -55.90452 35113 ft 456 kts 307°
2026-05-07 22:40 6.06310 -55.92913 35313 ft 455 kts 307°
2026-05-07 22:40 6.08318 -55.95361 35506 ft 454 kts 307°
2026-05-07 22:40 6.10326 -55.97808 35696 ft 453 kts 307°
2026-05-07 22:41 6.12328 -56.00250 35882 ft 452 kts 307°
2026-05-07 22:41 6.14324 -56.02690 36060 ft 452 kts 307°
2026-05-07 22:41 6.16322 -56.05128 36234 ft 451 kts 307°
2026-05-07 22:41 6.18314 -56.07555 36403 ft 450 kts 307°
2026-05-07 22:42 6.20306 -56.09984 36571 ft 450 kts 307°
2026-05-07 22:42 6.22295 -56.12410 36734 ft 449 kts 307°
2026-05-07 22:42 6.24278 -56.14831 36894 ft 448 kts 307°
2026-05-07 22:42 6.26261 -56.17249 37048 ft 448 kts 307°
2026-05-07 22:43 6.28241 -56.19662 37200 ft 447 kts 307°
2026-05-07 22:43 6.30220 -56.22072 37349 ft 447 kts 307°
2026-05-07 22:43 6.32192 -56.24480 37503 ft 446 kts 307°
2026-05-07 22:43 6.34160 -56.26887 37635 ft 446 kts 306°
2026-05-07 22:44 6.36127 -56.29293 37769 ft 445 kts 306°
2026-05-07 22:44 6.38094 -56.31696 37911 ft 445 kts 306°
2026-05-07 22:44 6.40063 -56.34099 37945 ft 446 kts 306°
2026-05-07 22:45 6.44002 -56.38907 37939 ft 445 kts 306°
2026-05-07 22:45 6.47267 -56.42905 37939 ft 445 kts 306°
2026-05-07 22:46 6.51200 -56.47717 37942 ft 445 kts 306°
2026-05-07 22:46 6.55132 -56.52525 37942 ft 445 kts 306°
2026-05-07 22:47 6.59068 -56.57338 37943 ft 445 kts 306°
2026-05-07 22:47 6.63002 -56.62153 37946 ft 446 kts 306°
2026-05-07 22:48 6.66943 -56.66970 37950 ft 446 kts 306°
2026-05-07 22:48 6.70887 -56.71791 37958 ft 446 kts 306°
2026-05-07 22:49 6.74825 -56.76614 37962 ft 446 kts 306°
2026-05-07 22:49 6.78733 -56.81405 37962 ft 446 kts 306°
2026-05-07 22:50 6.82675 -56.86224 37962 ft 446 kts 306°
2026-05-07 22:50 6.86605 -56.91044 37962 ft 446 kts 306°
2026-05-07 22:51 6.90533 -56.95871 37962 ft 445 kts 306°
2026-05-07 22:51 6.94459 -57.00693 37961 ft 446 kts 306°
2026-05-07 22:52 6.98398 -57.05509 37961 ft 446 kts 306°
2026-05-07 22:52 7.02337 -57.10324 37964 ft 445 kts 306°
2026-05-07 22:53 7.06266 -57.15146 37967 ft 445 kts 306°
2026-05-07 22:53 7.10187 -57.19976 37966 ft 445 kts 306°
2026-05-07 22:54 7.14110 -57.24797 37962 ft 445 kts 306°
2026-05-07 22:54 7.18040 -57.29611 37962 ft 445 kts 306°
2026-05-07 22:55 7.21969 -57.34429 37963 ft 445 kts 306°
2026-05-07 22:55 7.25892 -57.39250 37964 ft 445 kts 306°
2026-05-07 22:56 7.29813 -57.44072 37961 ft 445 kts 306°
2026-05-07 22:56 7.33732 -57.48897 37961 ft 445 kts 306°
2026-05-07 22:57 7.37626 -57.53689 37967 ft 445 kts 306°
2026-05-07 22:57 7.41534 -57.58521 37966 ft 445 kts 306°
2026-05-07 22:58 7.45438 -57.63354 37963 ft 445 kts 306°
2026-05-07 22:58 7.49349 -57.68186 37961 ft 445 kts 306°
2026-05-07 22:59 7.53256 -57.73017 37963 ft 445 kts 306°
2026-05-07 22:59 7.57151 -57.77851 37963 ft 445 kts 306°
2026-05-07 23:00 7.61053 -57.82691 37965 ft 445 kts 306°
2026-05-07 23:00 7.64962 -57.87519 37967 ft 445 kts 306°
2026-05-07 23:01 7.68879 -57.92349 37968 ft 445 kts 306°
2026-05-07 23:01 7.72816 -57.97159 37979 ft 445 kts 306°
2026-05-07 23:02 7.76763 -58.01964 37976 ft 445 kts 306°
2026-05-07 23:02 7.80696 -58.06769 37969 ft 445 kts 306°
2026-05-07 23:03 7.84616 -58.11588 37970 ft 444 kts 306°
2026-05-07 23:03 7.88517 -58.16422 37973 ft 444 kts 306°
2026-05-07 23:04 7.92425 -58.21256 37964 ft 444 kts 306°
2026-05-07 23:04 7.96325 -58.26087 37967 ft 444 kts 306°
2026-05-07 23:05 8.00228 -58.30913 37971 ft 444 kts 306°
2026-05-07 23:05 8.04132 -58.35745 37971 ft 444 kts 306°
2026-05-07 23:06 8.08039 -58.40569 37986 ft 444 kts 306°
2026-05-07 23:06 8.11942 -58.45398 37979 ft 444 kts 306°
2026-05-07 23:07 8.15816 -58.50193 37977 ft 444 kts 306°
2026-05-07 23:07 8.19715 -58.55022 37976 ft 444 kts 306°
2026-05-07 23:08 8.23637 -58.59886 37965 ft 444 kts 306°
2026-05-07 23:08 8.27516 -58.64678 37969 ft 444 kts 306°
2026-05-07 23:09 8.31411 -58.69511 37975 ft 444 kts 306°
2026-05-07 23:09 8.35303 -58.74343 37976 ft 444 kts 306°
2026-05-07 23:10 8.39200 -58.79178 37974 ft 444 kts 306°
2026-05-07 23:10 8.43092 -58.84012 37974 ft 444 kts 306°
2026-05-07 23:11 8.46985 -58.88845 37973 ft 444 kts 306°
2026-05-07 23:11 8.50879 -58.93680 37972 ft 444 kts 305°
2026-05-07 23:12 8.54775 -58.98514 37976 ft 444 kts 306°
2026-05-07 23:12 8.58674 -59.03346 37975 ft 444 kts 306°
2026-05-07 23:13 8.62561 -59.08180 37973 ft 443 kts 305°
2026-05-07 23:13 8.66446 -59.13017 37976 ft 443 kts 305°
2026-05-07 23:14 8.70326 -59.17849 37978 ft 443 kts 305°
2026-05-07 23:14 8.74208 -59.22682 37979 ft 443 kts 305°
2026-05-07 23:15 8.78089 -59.27511 37976 ft 443 kts 305°
2026-05-07 23:15 8.81972 -59.32339 37981 ft 442 kts 305°
2026-05-07 23:16 8.85845 -59.37168 37985 ft 442 kts 305°
2026-05-07 23:16 8.89717 -59.41986 37981 ft 441 kts 305°
2026-05-07 23:17 8.94102 -59.46352 37983 ft 448 kts 319°
2026-05-07 23:17 8.99113 -59.50101 37979 ft 448 kts 319°
2026-05-07 23:18 9.04112 -59.53863 37976 ft 448 kts 319°
2026-05-07 23:18 9.09070 -59.57606 37978 ft 448 kts 319°
2026-05-07 23:19 9.14099 -59.61404 37981 ft 448 kts 319°
2026-05-07 23:19 9.19053 -59.65151 37994 ft 447 kts 319°
2026-05-07 23:20 9.24038 -59.68907 37994 ft 447 kts 319°
2026-05-07 23:20 9.29025 -59.72656 37987 ft 446 kts 319°
2026-05-07 23:21 9.33996 -59.76414 37984 ft 446 kts 319°
2026-05-07 23:21 9.38972 -59.80170 37981 ft 446 kts 319°
2026-05-07 23:22 9.43941 -59.83924 37990 ft 446 kts 319°
2026-05-07 23:22 9.48913 -59.87679 37986 ft 446 kts 319°
2026-05-07 23:23 9.53885 -59.91430 37989 ft 445 kts 319°
2026-05-07 23:23 9.58842 -59.95176 37998 ft 444 kts 319°
2026-05-07 23:24 9.63790 -59.98924 37995 ft 444 kts 319°
2026-05-07 23:24 9.68728 -60.02665 37994 ft 443 kts 319°
2026-05-07 23:25 9.73669 -60.06407 37993 ft 443 kts 319°
2026-05-07 23:25 9.78608 -60.10144 37992 ft 443 kts 319°
2026-05-07 23:26 9.83547 -60.13884 38005 ft 443 kts 319°
2026-05-07 23:26 9.88455 -60.17603 38001 ft 442 kts 318°
2026-05-07 23:27 9.95851 -60.23211 38002 ft 442 kts 318°
2026-05-07 23:27 10.00781 -60.26946 37999 ft 441 kts 318°
2026-05-07 23:28 10.05665 -60.30657 38000 ft 441 kts 318°
2026-05-07 23:28 10.10595 -60.34397 37993 ft 441 kts 318°
2026-05-07 23:29 10.15509 -60.38124 37999 ft 441 kts 318°
2026-05-07 23:29 10.20396 -60.41828 38007 ft 441 kts 318°
2026-05-07 23:30 10.25311 -60.45566 38006 ft 441 kts 317°
2026-05-07 23:30 10.30219 -60.49306 37997 ft 441 kts 317°
2026-05-07 23:31 10.35126 -60.53043 38002 ft 441 kts 317°
2026-05-07 23:31 10.40009 -60.56763 37990 ft 441 kts 317°
2026-05-07 23:32 10.44922 -60.60507 38003 ft 441 kts 317°
2026-05-07 23:32 10.49835 -60.64248 38004 ft 441 kts 317°
2026-05-07 23:33 10.54721 -60.67961 38003 ft 441 kts 317°
2026-05-07 23:33 10.59649 -60.71714 37997 ft 441 kts 317°
2026-05-07 23:34 10.64566 -60.75465 38001 ft 442 kts 317°
2026-05-07 23:34 10.69471 -60.79206 37997 ft 442 kts 317°
2026-05-07 23:35 10.73575 -60.82337 37997 ft 442 kts 317°
2026-05-07 23:35 10.78500 -60.86101 37999 ft 442 kts 317°
2026-05-07 23:36 10.83438 -60.89868 37999 ft 443 kts 317°
2026-05-07 23:36 10.88341 -60.93610 37998 ft 443 kts 317°
2026-05-07 23:37 10.93279 -60.97388 38000 ft 443 kts 317°
2026-05-07 23:37 10.98223 -61.01172 37995 ft 444 kts 317°
2026-05-07 23:38 11.03145 -61.04931 37997 ft 445 kts 317°
2026-05-07 23:38 11.08104 -61.08721 37994 ft 445 kts 317°
2026-05-07 23:39 11.13071 -61.12526 37993 ft 446 kts 317°
2026-05-07 23:39 11.18000 -61.16311 37994 ft 446 kts 317°
2026-05-07 23:40 11.22970 -61.20117 37996 ft 446 kts 317°
2026-05-07 23:40 11.27940 -61.23927 38006 ft 447 kts 317°
2026-05-07 23:41 11.32877 -61.27719 37998 ft 447 kts 317°
2026-05-07 23:41 11.37862 -61.31547 37995 ft 447 kts 317°
2026-05-07 23:42 11.42850 -61.35375 37994 ft 448 kts 317°
2026-05-07 23:42 11.47821 -61.39203 37993 ft 448 kts 317°
2026-05-07 23:43 11.52776 -61.43008 37992 ft 448 kts 317°
2026-05-07 23:43 11.57770 -61.46837 37991 ft 448 kts 317°
2026-05-07 23:44 11.62733 -61.50647 38004 ft 449 kts 317°
2026-05-07 23:44 11.67725 -61.54494 37997 ft 449 kts 317°
2026-05-07 23:45 11.72732 -61.58348 37993 ft 450 kts 317°
2026-05-07 23:45 11.77706 -61.62177 37992 ft 450 kts 317°
2026-05-07 23:46 11.82703 -61.66032 37989 ft 450 kts 317°
2026-05-07 23:46 11.87708 -61.69896 37990 ft 450 kts 317°
2026-05-07 23:47 11.92685 -61.73741 37990 ft 450 kts 317°
2026-05-07 23:47 11.97700 -61.77606 38023 ft 451 kts 316°
2026-05-07 23:48 12.02687 -61.81455 38018 ft 451 kts 316°
2026-05-07 23:48 12.07707 -61.85327 38015 ft 451 kts 316°
2026-05-07 23:49 12.12724 -61.89198 37999 ft 451 kts 316°
2026-05-07 23:49 12.17706 -61.93049 38014 ft 451 kts 316°
2026-05-07 23:50 12.22723 -61.96932 38010 ft 451 kts 316°
2026-05-07 23:50 12.27737 -62.00815 38009 ft 451 kts 316°
2026-05-07 23:51 12.32745 -62.04695 38026 ft 451 kts 316°
2026-05-07 23:51 12.37761 -62.08581 38019 ft 452 kts 316°
2026-05-07 23:52 12.42745 -62.12439 38013 ft 452 kts 316°
2026-05-07 23:52 12.47772 -62.16327 38012 ft 452 kts 316°
2026-05-07 23:53 12.52797 -62.20222 38019 ft 452 kts 316°
2026-05-07 23:53 12.57780 -62.24099 38018 ft 452 kts 316°
2026-05-07 23:54 12.62792 -62.28004 38018 ft 452 kts 316°
2026-05-07 23:54 12.67785 -62.31879 38026 ft 452 kts 316°
2026-05-07 23:55 12.72803 -62.35773 38023 ft 452 kts 316°
2026-05-07 23:55 12.77824 -62.39680 38019 ft 452 kts 316°
2026-05-07 23:56 12.82809 -62.43559 38019 ft 452 kts 316°
2026-05-07 23:56 12.87843 -62.47480 38020 ft 452 kts 316°
2026-05-07 23:57 12.92817 -62.51359 38020 ft 452 kts 316°
2026-05-07 23:57 12.97819 -62.55268 38025 ft 452 kts 316°
2026-05-07 23:58 13.02792 -62.59125 38079 ft 439 kts 317°
2026-05-07 23:58 13.07605 -62.62863 39376 ft 433 kts 321°
2026-05-07 23:59 13.10011 -62.64748 38030 ft 437 kts 316°
2026-05-07 23:59 13.12433 -62.66652 38009 ft 441 kts 316°
2026-05-07 23:59 13.17343 -62.70502 38010 ft 448 kts 316°
2026-05-08 00:00 13.22321 -62.74386 38010 ft 450 kts 316°
2026-05-08 00:00 13.27302 -62.78284 38008 ft 450 kts 316°
2026-05-08 00:01 13.32287 -62.82179 38008 ft 451 kts 316°
2026-05-08 00:01 13.37279 -62.86075 38033 ft 450 kts 317°
2026-05-08 00:02 13.42254 -62.89972 38031 ft 450 kts 316°
2026-05-08 00:02 13.47223 -62.93873 38030 ft 449 kts 316°
2026-05-08 00:03 13.52188 -62.97774 38030 ft 449 kts 317°
2026-05-08 00:03 13.57157 -63.01661 38031 ft 449 kts 317°
2026-05-08 00:04 13.62132 -63.05553 38029 ft 449 kts 316°
2026-05-08 00:04 13.67092 -63.09447 38033 ft 449 kts 316°
2026-05-08 00:05 13.72049 -63.13349 38049 ft 448 kts 317°
2026-05-08 00:05 13.76995 -63.17246 38048 ft 447 kts 317°
2026-05-08 00:06 13.81930 -63.21126 38043 ft 446 kts 317°
2026-05-08 00:06 13.86859 -63.25001 38035 ft 445 kts 317°
2026-05-08 00:07 13.91739 -63.28849 38038 ft 445 kts 317°
2026-05-08 00:07 13.96655 -63.32719 38035 ft 445 kts 317°
2026-05-08 00:08 14.01569 -63.36584 38031 ft 444 kts 317°
2026-05-08 00:08 14.06510 -63.40478 38041 ft 444 kts 318°
2026-05-08 00:09 14.11413 -63.44354 38040 ft 444 kts 319°
2026-05-08 00:09 14.16309 -63.48226 38038 ft 444 kts 319°
2026-05-08 00:10 14.21178 -63.52065 38041 ft 443 kts 319°
2026-05-08 00:10 14.26069 -63.55931 38041 ft 443 kts 319°
2026-05-08 00:11 14.30965 -63.59797 38044 ft 443 kts 319°
2026-05-08 00:11 14.35856 -63.63661 38047 ft 443 kts 319°
2026-05-08 00:12 14.40746 -63.67531 38045 ft 443 kts 319°
2026-05-08 00:12 14.45627 -63.71406 38050 ft 443 kts 319°
2026-05-08 00:13 14.50514 -63.75273 38045 ft 442 kts 320°
2026-05-08 00:13 14.55397 -63.79136 38054 ft 442 kts 320°
2026-05-08 00:14 14.60265 -63.83004 38050 ft 441 kts 320°
2026-05-08 00:14 14.65132 -63.86870 38046 ft 441 kts 320°
2026-05-08 00:15 14.70000 -63.90727 38044 ft 441 kts 320°
2026-05-08 00:15 14.74860 -63.94596 38049 ft 441 kts 320°
2026-05-08 00:16 14.79717 -63.98466 38057 ft 441 kts 320°
2026-05-08 00:16 14.84571 -64.02332 38052 ft 440 kts 320°
2026-05-08 00:17 14.89421 -64.06195 38045 ft 440 kts 321°
2026-05-08 00:17 14.94264 -64.10047 38044 ft 439 kts 321°
2026-05-08 00:18 14.99098 -64.13901 38056 ft 438 kts 321°
2026-05-08 00:18 15.03862 -64.17759 38051 ft 438 kts 320°
2026-05-08 00:19 15.08607 -64.21704 38048 ft 437 kts 320°
2026-05-08 00:19 15.13337 -64.25659 38064 ft 437 kts 320°
2026-05-08 00:20 15.18071 -64.29607 38064 ft 437 kts 321°
2026-05-08 00:20 15.22815 -64.33527 38057 ft 436 kts 321°
2026-05-08 00:21 15.27560 -64.37445 38050 ft 436 kts 322°
2026-05-08 00:21 15.32292 -64.41368 38051 ft 435 kts 321°
2026-05-08 00:22 15.37010 -64.45298 38048 ft 435 kts 321°
2026-05-08 00:22 15.40933 -64.48557 38049 ft 435 kts 321°
2026-05-08 00:23 15.45653 -64.52473 38052 ft 435 kts 321°
2026-05-08 00:23 15.50369 -64.56395 38063 ft 435 kts 322°
2026-05-08 00:24 15.55079 -64.60332 38058 ft 435 kts 322°
2026-05-08 00:24 15.59794 -64.64270 38053 ft 435 kts 322°
2026-05-08 00:25 15.64515 -64.68199 38052 ft 435 kts 322°
2026-05-08 00:25 15.69245 -64.72128 38052 ft 435 kts 322°
2026-05-08 00:26 15.73966 -64.76061 38054 ft 435 kts 322°
2026-05-08 00:26 15.78682 -64.80006 38054 ft 435 kts 322°
2026-05-08 00:27 15.83400 -64.83952 38061 ft 435 kts 322°
2026-05-08 00:27 15.88124 -64.87896 38060 ft 436 kts 323°
2026-05-08 00:28 15.92841 -64.91848 38062 ft 436 kts 323°
2026-05-08 00:28 15.97554 -64.95809 38061 ft 436 kts 323°
2026-05-08 00:29 16.02276 -64.99757 38053 ft 435 kts 323°
2026-05-08 00:29 16.06988 -65.03704 38062 ft 435 kts 323°
2026-05-08 00:30 16.11667 -65.07634 38059 ft 435 kts 323°
2026-05-08 00:30 16.16380 -65.11585 38063 ft 435 kts 323°
2026-05-08 00:31 16.21091 -65.15535 38071 ft 435 kts 324°
2026-05-08 00:31 16.25790 -65.19494 38067 ft 435 kts 324°
2026-05-08 00:32 16.30488 -65.23450 38063 ft 434 kts 324°
2026-05-08 00:32 16.35192 -65.27399 38065 ft 434 kts 324°
2026-05-08 00:33 16.39889 -65.31344 38052 ft 434 kts 324°
2026-05-08 00:33 16.44582 -65.35297 38062 ft 433 kts 324°
2026-05-08 00:34 16.49270 -65.39249 38059 ft 433 kts 324°
2026-05-08 00:34 16.53950 -65.43200 38064 ft 433 kts 324°
2026-05-08 00:35 16.58629 -65.47157 38071 ft 433 kts 324°
2026-05-08 00:35 16.63309 -65.51108 38066 ft 433 kts 324°
2026-05-08 00:36 16.67987 -65.55063 38064 ft 433 kts 324°
2026-05-08 00:36 16.72663 -65.59013 38064 ft 433 kts 324°
2026-05-08 00:37 16.77338 -65.62969 38058 ft 432 kts 325°
2026-05-08 00:38 16.84339 -65.68901 38081 ft 432 kts 325°
2026-05-08 00:38 16.88999 -65.72844 38077 ft 431 kts 325°
2026-05-08 00:39 16.93650 -65.76794 38082 ft 431 kts 326°
2026-05-08 00:39 16.98296 -65.80734 38083 ft 430 kts 326°
2026-05-08 00:40 17.02939 -65.84671 38068 ft 429 kts 326°
2026-05-08 00:40 17.07570 -65.88605 38081 ft 429 kts 326°
2026-05-08 00:41 17.12173 -65.92518 38079 ft 429 kts 326°
2026-05-08 00:41 17.16794 -65.96456 38073 ft 428 kts 326°
2026-05-08 00:42 17.21411 -66.00385 38081 ft 427 kts 326°
2026-05-08 00:42 17.26017 -66.04312 38082 ft 427 kts 326°
2026-05-08 00:43 17.30611 -66.08232 38092 ft 426 kts 326°
2026-05-08 00:43 17.35189 -66.12143 38092 ft 424 kts 326°
2026-05-08 00:44 17.39763 -66.16044 38089 ft 424 kts 326°
2026-05-08 00:44 17.44327 -66.19945 38086 ft 423 kts 326°
2026-05-08 00:45 17.48886 -66.23839 38085 ft 423 kts 326°
2026-05-08 00:45 17.53440 -66.27730 38085 ft 422 kts 327°
2026-05-08 00:46 17.57975 -66.31612 38087 ft 420 kts 327°
2026-05-08 00:46 17.62496 -66.35486 38107 ft 419 kts 327°
2026-05-08 00:47 17.66997 -66.39347 38105 ft 417 kts 327°
2026-05-08 00:47 17.71477 -66.43189 38103 ft 415 kts 327°
2026-05-08 00:48 17.75914 -66.46995 38099 ft 414 kts 327°
2026-05-08 00:48 17.80368 -66.50827 38099 ft 414 kts 327°
2026-05-08 00:49 17.84815 -66.54656 38097 ft 413 kts 327°
2026-05-08 00:49 17.89263 -66.58476 38074 ft 413 kts 327°
2026-05-08 00:50 17.93701 -66.62290 38081 ft 412 kts 327°
2026-05-08 00:50 17.98122 -66.66098 38097 ft 411 kts 327°
2026-05-08 00:51 18.02533 -66.69900 38092 ft 410 kts 327°
2026-05-08 00:51 18.06932 -66.73697 38095 ft 409 kts 327°
2026-05-08 00:52 18.11323 -66.77492 38095 ft 408 kts 327°
2026-05-08 00:52 18.15704 -66.81266 38096 ft 408 kts 327°
2026-05-08 00:53 18.20092 -66.85051 38107 ft 408 kts 327°
2026-05-08 00:53 18.24472 -66.88854 38110 ft 408 kts 327°
2026-05-08 00:54 18.28857 -66.92647 38091 ft 408 kts 326°
2026-05-08 00:54 18.33250 -66.96435 38094 ft 408 kts 325°
2026-05-08 00:55 18.37640 -67.00235 38086 ft 409 kts 326°
2026-05-08 00:55 18.42039 -67.04056 38085 ft 410 kts 326°
2026-05-08 00:56 18.46442 -67.07881 38092 ft 411 kts 326°
2026-05-08 00:56 18.50654 -67.11916 38091 ft 418 kts 315°
2026-05-08 00:57 18.54273 -67.16733 38093 ft 419 kts 314°
2026-05-08 00:57 18.57908 -67.21539 38094 ft 420 kts 314°
2026-05-08 00:58 18.61546 -67.26352 38079 ft 420 kts 314°
2026-05-08 00:58 18.65189 -67.31172 38078 ft 420 kts 314°
2026-05-08 00:59 18.68824 -67.36002 38082 ft 421 kts 314°
2026-05-08 00:59 18.72462 -67.40841 38079 ft 421 kts 314°
2026-05-08 01:00 18.76099 -67.45696 38073 ft 422 kts 314°
2026-05-08 01:00 18.79743 -67.50557 38081 ft 423 kts 314°
2026-05-08 01:01 18.83395 -67.55422 38064 ft 423 kts 314°
2026-05-08 01:01 18.87053 -67.60293 38067 ft 424 kts 314°
2026-05-08 01:02 18.90710 -67.65174 38071 ft 424 kts 314°
2026-05-08 01:02 18.94371 -67.70060 38083 ft 424 kts 314°
2026-05-08 01:03 18.98030 -67.74949 38088 ft 424 kts 314°
2026-05-08 01:03 19.01689 -67.79849 38089 ft 425 kts 314°
2026-05-08 01:04 19.05344 -67.84758 38085 ft 425 kts 314°
2026-05-08 01:04 19.09002 -67.89666 38084 ft 425 kts 314°
2026-05-08 01:05 19.12664 -67.94583 38075 ft 426 kts 314°
2026-05-08 01:05 19.16335 -67.99515 38074 ft 427 kts 314°
2026-05-08 01:06 19.20012 -68.04449 38076 ft 427 kts 314°
2026-05-08 01:06 19.23698 -68.09388 38086 ft 428 kts 314°
2026-05-08 01:07 19.27377 -68.14337 38085 ft 428 kts 314°
2026-05-08 01:07 19.31057 -68.19293 38083 ft 428 kts 314°
2026-05-08 01:08 19.34737 -68.24250 38083 ft 428 kts 314°
2026-05-08 01:08 19.38411 -68.29216 38087 ft 428 kts 314°
2026-05-08 01:09 19.42088 -68.34187 38090 ft 428 kts 314°
2026-05-08 01:09 19.45768 -68.39154 38091 ft 429 kts 314°
2026-05-08 01:10 19.48829 -68.43284 38087 ft 429 kts 314°
2026-05-08 01:10 19.52511 -68.48263 38085 ft 429 kts 314°
2026-05-08 01:11 19.56194 -68.53254 38074 ft 430 kts 313°
2026-05-08 01:11 19.59877 -68.58241 38088 ft 429 kts 313°
2026-05-08 01:12 19.63563 -68.63230 38092 ft 429 kts 313°
2026-05-08 01:12 19.67238 -68.68217 38096 ft 429 kts 313°
2026-05-08 01:13 19.70915 -68.73204 38095 ft 429 kts 313°
2026-05-08 01:13 19.74585 -68.78195 38095 ft 429 kts 313°
2026-05-08 01:14 19.78235 -68.83154 38097 ft 429 kts 313°
2026-05-08 01:14 19.81901 -68.88148 38088 ft 429 kts 312°
2026-05-08 01:15 19.85562 -68.93146 38095 ft 428 kts 312°
2026-05-08 01:15 19.89228 -68.98124 38099 ft 427 kts 312°
2026-05-08 01:16 19.92912 -69.03079 38099 ft 427 kts 312°
2026-05-08 01:16 19.96584 -69.08037 38099 ft 427 kts 312°
2026-05-08 01:17 20.00255 -69.13000 38096 ft 427 kts 312°
2026-05-08 01:17 20.03928 -69.17952 38097 ft 427 kts 312°
2026-05-08 01:18 20.07600 -69.22909 38093 ft 426 kts 312°
2026-05-08 01:18 20.11266 -69.27865 38090 ft 426 kts 312°
2026-05-08 01:19 20.14926 -69.32824 38097 ft 426 kts 312°
2026-05-08 01:19 20.18588 -69.37779 38099 ft 426 kts 312°
2026-05-08 01:20 20.22247 -69.42738 38096 ft 426 kts 312°
2026-05-08 01:20 20.25904 -69.47696 38096 ft 426 kts 312°
2026-05-08 01:21 20.29558 -69.52663 38098 ft 426 kts 312°
2026-05-08 01:21 20.33209 -69.57628 38087 ft 426 kts 312°
2026-05-08 01:22 20.36853 -69.62595 38089 ft 426 kts 312°
2026-05-08 01:22 20.40500 -69.67564 38092 ft 425 kts 312°
2026-05-08 01:23 20.44145 -69.72536 38090 ft 425 kts 312°
2026-05-08 01:23 20.47740 -69.77497 38091 ft 426 kts 311°
2026-05-08 01:24 20.51329 -69.82521 38092 ft 426 kts 311°
2026-05-08 01:24 20.54917 -69.87549 38078 ft 426 kts 311°
2026-05-08 01:25 20.58506 -69.92575 38087 ft 426 kts 311°
2026-05-08 01:25 20.62099 -69.97600 38088 ft 426 kts 311°
2026-05-08 01:26 20.65696 -70.02622 38087 ft 426 kts 311°
2026-05-08 01:26 20.69286 -70.07645 38086 ft 426 kts 311°
2026-05-08 01:27 20.72874 -70.12676 38086 ft 426 kts 311°
2026-05-08 01:27 20.76454 -70.17701 38087 ft 425 kts 311°
2026-05-08 01:28 20.80042 -70.22730 38086 ft 425 kts 311°
2026-05-08 01:28 20.83622 -70.27768 38089 ft 425 kts 311°
2026-05-08 01:29 20.87201 -70.32803 38087 ft 425 kts 311°
2026-05-08 01:29 20.90780 -70.37840 38089 ft 425 kts 311°
2026-05-08 01:30 20.94354 -70.42885 38093 ft 425 kts 311°
2026-05-08 01:30 20.97924 -70.47926 38093 ft 425 kts 311°
2026-05-08 01:31 21.01497 -70.52971 38092 ft 425 kts 311°
2026-05-08 01:31 21.05071 -70.58011 38085 ft 425 kts 311°
2026-05-08 01:32 21.08640 -70.63056 38087 ft 425 kts 311°
2026-05-08 01:32 21.12209 -70.68107 38088 ft 425 kts 311°
2026-05-08 01:33 21.15750 -70.73130 38089 ft 425 kts 311°
2026-05-08 01:33 21.19315 -70.78186 38087 ft 425 kts 311°
2026-05-08 01:34 21.22875 -70.83248 38090 ft 425 kts 311°
2026-05-08 01:34 21.26436 -70.88311 38083 ft 425 kts 311°
2026-05-08 01:35 21.30005 -70.93372 38079 ft 426 kts 311°
2026-05-08 01:35 21.33573 -70.98441 38083 ft 426 kts 311°
2026-05-08 01:36 21.37132 -71.03522 38091 ft 426 kts 310°
2026-05-08 01:36 21.40697 -71.08609 38090 ft 426 kts 310°
2026-05-08 01:37 21.44249 -71.13707 38088 ft 427 kts 309°
2026-05-08 01:37 21.47582 -71.18999 38087 ft 429 kts 307°
2026-05-08 01:38 21.50757 -71.24420 38093 ft 429 kts 306°
2026-05-08 01:38 21.53943 -71.29835 38095 ft 429 kts 307°
2026-05-08 01:39 21.57172 -71.35223 38092 ft 429 kts 307°
2026-05-08 01:39 21.60419 -71.40595 38092 ft 429 kts 307°
2026-05-08 01:40 21.63655 -71.45971 38095 ft 429 kts 307°
2026-05-08 01:40 21.66879 -71.51364 38094 ft 429 kts 307°
2026-05-08 01:41 21.70103 -71.56765 38084 ft 429 kts 306°
2026-05-08 01:41 21.73328 -71.62163 38084 ft 429 kts 306°
2026-05-08 01:42 21.76560 -71.67566 38090 ft 430 kts 306°
2026-05-08 01:42 21.79795 -71.72979 38091 ft 430 kts 306°
2026-05-08 01:43 21.83018 -71.78403 38096 ft 430 kts 306°
2026-05-08 01:43 21.86246 -71.83827 38100 ft 430 kts 306°
2026-05-08 01:44 21.89483 -71.89252 38089 ft 431 kts 306°
2026-05-08 01:44 21.92714 -71.94680 38075 ft 431 kts 306°
2026-05-08 01:45 21.95944 -72.00123 38082 ft 432 kts 306°
2026-05-08 01:45 21.99172 -72.05581 38086 ft 432 kts 306°
2026-05-08 01:46 22.02408 -72.11035 38089 ft 432 kts 306°
2026-05-08 01:46 22.05640 -72.16493 38098 ft 432 kts 306°
2026-05-08 01:47 22.08872 -72.21959 38097 ft 432 kts 306°
2026-05-08 01:47 22.12107 -72.27428 38085 ft 432 kts 306°
2026-05-08 01:48 22.16935 -72.35606 38086 ft 433 kts 306°
2026-05-08 01:48 22.20162 -72.41096 38089 ft 433 kts 306°
2026-05-08 01:49 22.23392 -72.46588 38091 ft 433 kts 306°
2026-05-08 01:49 22.26620 -72.52085 38102 ft 434 kts 306°
2026-05-08 01:50 22.29852 -72.57581 38097 ft 434 kts 306°
2026-05-08 01:50 22.33089 -72.63078 38088 ft 434 kts 305°
2026-05-08 01:51 22.36322 -72.68586 38082 ft 435 kts 305°
2026-05-08 01:51 22.39555 -72.74118 38086 ft 435 kts 305°
2026-05-08 01:52 22.42784 -72.79648 38083 ft 436 kts 305°
2026-05-08 01:52 22.46021 -72.85190 38090 ft 436 kts 305°
2026-05-08 01:53 22.49251 -72.90732 38094 ft 436 kts 305°
2026-05-08 01:53 22.52487 -72.96274 38094 ft 436 kts 304°
2026-05-08 01:54 22.55724 -73.01821 38093 ft 436 kts 304°
2026-05-08 01:54 22.58958 -73.07376 38103 ft 436 kts 304°
2026-05-08 01:55 22.62189 -73.12937 38098 ft 437 kts 304°
2026-05-08 01:55 22.65409 -73.18513 38104 ft 437 kts 304°
2026-05-08 01:56 22.68615 -73.24048 38096 ft 437 kts 304°
2026-05-08 01:56 22.71851 -73.29616 38098 ft 437 kts 304°
2026-05-08 01:57 22.75080 -73.35189 38096 ft 437 kts 304°
2026-05-08 01:57 22.78299 -73.40772 38098 ft 437 kts 304°
2026-05-08 01:58 22.80997 -73.45456 38102 ft 437 kts 304°
2026-05-08 01:58 22.84222 -73.51041 38102 ft 437 kts 304°
2026-05-08 01:59 22.87450 -73.56624 38102 ft 437 kts 304°
2026-05-08 01:59 22.90670 -73.62218 38108 ft 437 kts 304°
2026-05-08 02:00 22.93884 -73.67800 38107 ft 436 kts 303°
2026-05-08 02:00 22.97069 -73.73345 38109 ft 436 kts 303°
2026-05-08 02:01 23.00271 -73.78928 38110 ft 436 kts 303°
2026-05-08 02:01 23.03474 -73.84509 38108 ft 435 kts 303°
2026-05-08 02:02 23.06680 -73.90088 38106 ft 435 kts 303°
2026-05-08 02:02 23.09874 -73.95677 38106 ft 435 kts 303°
2026-05-08 02:03 23.13054 -74.01272 38101 ft 435 kts 303°
2026-05-08 02:03 23.16241 -74.06863 38103 ft 435 kts 303°
2026-05-08 02:04 23.19435 -74.12445 38102 ft 435 kts 303°
2026-05-08 02:04 23.22622 -74.18038 38104 ft 435 kts 303°
2026-05-08 02:05 23.25797 -74.23635 38110 ft 435 kts 303°
2026-05-08 02:05 23.28980 -74.29227 38116 ft 435 kts 303°
2026-05-08 02:06 23.32138 -74.34779 38111 ft 434 kts 303°
2026-05-08 02:06 23.35304 -74.40367 38111 ft 433 kts 303°
2026-05-08 02:07 23.38461 -74.45951 38115 ft 433 kts 303°
2026-05-08 02:07 23.41620 -74.51526 38110 ft 432 kts 303°
2026-05-08 02:08 23.44771 -74.57098 38109 ft 432 kts 303°
2026-05-08 02:08 23.47920 -74.62673 38108 ft 432 kts 303°
2026-05-08 02:09 23.51067 -74.68246 38108 ft 432 kts 303°
2026-05-08 02:09 23.54209 -74.73825 38106 ft 432 kts 303°
2026-05-08 02:10 23.57343 -74.79405 38110 ft 432 kts 303°
2026-05-08 02:10 23.60478 -74.84984 38109 ft 432 kts 303°
2026-05-08 02:11 23.63611 -74.90570 38103 ft 432 kts 303°
2026-05-08 02:11 23.66741 -74.96153 38115 ft 431 kts 302°
2026-05-08 02:12 23.69854 -75.01684 38117 ft 430 kts 302°
2026-05-08 02:12 23.72970 -75.07257 38111 ft 430 kts 302°
2026-05-08 02:13 23.76070 -75.12826 38113 ft 429 kts 302°
2026-05-08 02:13 23.79176 -75.18383 38113 ft 428 kts 302°
2026-05-08 02:14 23.82273 -75.23939 38108 ft 428 kts 302°
2026-05-08 02:14 23.85363 -75.29493 38107 ft 428 kts 302°
2026-05-08 02:15 23.88459 -75.35045 38112 ft 428 kts 302°
2026-05-08 02:15 23.91553 -75.40591 38107 ft 427 kts 302°
2026-05-08 02:16 23.94643 -75.46146 38102 ft 427 kts 302°
2026-05-08 02:16 23.97717 -75.51700 38103 ft 427 kts 302°
2026-05-08 02:17 24.00792 -75.57254 38108 ft 427 kts 302°
2026-05-08 02:17 24.03861 -75.62811 38107 ft 427 kts 302°
2026-05-08 02:18 24.06924 -75.68366 38102 ft 427 kts 302°
2026-05-08 02:18 24.09995 -75.73919 38105 ft 427 kts 302°
2026-05-08 02:19 24.13060 -75.79479 38101 ft 427 kts 302°
2026-05-08 02:19 24.16099 -75.85006 38101 ft 426 kts 302°
2026-05-08 02:20 24.19166 -75.90562 38100 ft 426 kts 302°
2026-05-08 02:20 24.22231 -75.96124 38100 ft 426 kts 302°
2026-05-08 02:21 24.25279 -76.01688 38102 ft 426 kts 302°
2026-05-08 02:21 24.28330 -76.07255 38102 ft 426 kts 302°
2026-05-08 02:22 24.31380 -76.12828 38096 ft 426 kts 302°
2026-05-08 02:22 24.34427 -76.18408 38096 ft 426 kts 301°
2026-05-08 02:23 24.37473 -76.23983 38100 ft 426 kts 301°
2026-05-08 02:23 24.40527 -76.29554 38103 ft 426 kts 301°
2026-05-08 02:24 24.43568 -76.35126 38107 ft 425 kts 301°
2026-05-08 02:24 24.46595 -76.40696 38105 ft 425 kts 301°
2026-05-08 02:25 24.49623 -76.46273 38104 ft 425 kts 301°
2026-05-08 02:25 24.52651 -76.51838 38097 ft 425 kts 301°
2026-05-08 02:26 24.55675 -76.57411 38098 ft 425 kts 301°
2026-05-08 02:26 24.58696 -76.62986 38096 ft 425 kts 301°
2026-05-08 02:27 24.61718 -76.68560 38090 ft 425 kts 301°
2026-05-08 02:27 24.64737 -76.74141 38094 ft 425 kts 301°
2026-05-08 02:28 24.67750 -76.79723 38091 ft 425 kts 301°
2026-05-08 02:28 24.70764 -76.85307 38094 ft 425 kts 301°
2026-05-08 02:29 24.73775 -76.90903 38096 ft 425 kts 301°
2026-05-08 02:29 24.76784 -76.96496 38100 ft 425 kts 300°
2026-05-08 02:30 24.79792 -77.02088 38099 ft 425 kts 300°
2026-05-08 02:30 24.82795 -77.07684 38098 ft 424 kts 300°
2026-05-08 02:31 24.85796 -77.13279 38095 ft 424 kts 300°
2026-05-08 02:31 24.88788 -77.18877 38097 ft 424 kts 300°
2026-05-08 02:32 24.91785 -77.24475 38097 ft 424 kts 300°
2026-05-08 02:32 24.94783 -77.30076 38098 ft 424 kts 300°
2026-05-08 02:33 24.97787 -77.35681 38100 ft 425 kts 300°
2026-05-08 02:33 25.00781 -77.41288 38101 ft 425 kts 300°
2026-05-08 02:34 25.03471 -77.47070 38100 ft 424 kts 292°
2026-05-08 02:34 25.05725 -77.53087 38101 ft 424 kts 292°
2026-05-08 02:35 25.07984 -77.59100 38101 ft 425 kts 292°
2026-05-08 02:35 25.10238 -77.65124 38096 ft 425 kts 292°
2026-05-08 02:36 25.12492 -77.71151 38094 ft 425 kts 292°
2026-05-08 02:36 25.14736 -77.77180 38102 ft 425 kts 292°
2026-05-08 02:37 25.16978 -77.83205 38099 ft 424 kts 292°
2026-05-08 02:37 25.19219 -77.89229 38094 ft 424 kts 292°
2026-05-08 02:38 25.21460 -77.95261 37967 ft 430 kts 292°
2026-05-08 02:38 25.22607 -77.98351 37659 ft 438 kts 292°
2026-05-08 02:38 25.23763 -78.01467 37015 ft 438 kts 292°
2026-05-08 02:39 25.24918 -78.04579 36318 ft 438 kts 292°
2026-05-08 02:39 25.26073 -78.07698 35550 ft 440 kts 292°
2026-05-08 02:39 25.27232 -78.10831 34736 ft 442 kts 292°
2026-05-08 02:39 25.28397 -78.13993 33934 ft 445 kts 292°
2026-05-08 02:40 25.29554 -78.17131 33349 ft 439 kts 292°
2026-05-08 02:40 25.30719 -78.20262 32469 ft 442 kts 293°
2026-05-08 02:40 25.31929 -78.23369 31864 ft 438 kts 294°
2026-05-08 02:40 25.33159 -78.26428 31248 ft 434 kts 294°
2026-05-08 02:41 25.34380 -78.29415 30657 ft 430 kts 294°
2026-05-08 02:41 25.35609 -78.32412 30053 ft 426 kts 294°
2026-05-08 02:41 25.36820 -78.35385 29422 ft 422 kts 294°
2026-05-08 02:41 25.38008 -78.38326 28860 ft 416 kts 294°
2026-05-08 02:42 25.39173 -78.41236 28276 ft 411 kts 294°
2026-05-08 02:42 25.40315 -78.44113 27733 ft 406 kts 294°
2026-05-08 02:42 25.41441 -78.46959 27259 ft 400 kts 294°
2026-05-08 02:42 25.42528 -78.49751 26912 ft 391 kts 293°
2026-05-08 02:43 25.43583 -78.52500 26211 ft 388 kts 293°
2026-05-08 02:43 25.44624 -78.55229 25686 ft 380 kts 293°
2026-05-08 02:43 25.45644 -78.57911 25210 ft 376 kts 293°
2026-05-08 02:43 25.46653 -78.60560 24755 ft 372 kts 293°
2026-05-08 02:44 25.47657 -78.63188 24287 ft 368 kts 293°
2026-05-08 02:44 25.48316 -78.64909 23984 ft 366 kts 293°
2026-05-08 02:44 25.49637 -78.68360 23329 ft 362 kts 293°
2026-05-08 02:44 25.50614 -78.70912 22867 ft 358 kts 293°
2026-05-08 02:45 25.51253 -78.72582 22578 ft 355 kts 293°
2026-05-08 02:45 25.52209 -78.75085 22138 ft 351 kts 293°
2026-05-08 02:45 25.53157 -78.77563 21706 ft 348 kts 293°
2026-05-08 02:45 25.54412 -78.80852 21096 ft 345 kts 293°
2026-05-08 02:46 25.55028 -78.82467 20797 ft 343 kts 293°
2026-05-08 02:46 25.55956 -78.84897 20352 ft 342 kts 293°
2026-05-08 02:46 25.56880 -78.87316 19899 ft 341 kts 293°
2026-05-08 02:46 25.57800 -78.89729 19461 ft 340 kts 294°
2026-05-08 02:47 25.58718 -78.92140 19009 ft 339 kts 294°
2026-05-08 02:47 25.59634 -78.94549 18555 ft 339 kts 294°
2026-05-08 02:47 25.60548 -78.96960 18079 ft 339 kts 294°
2026-05-08 02:47 25.61459 -78.99359 17581 ft 338 kts 294°
2026-05-08 02:48 25.62370 -79.01759 17139 ft 337 kts 293°
2026-05-08 02:48 25.63276 -79.04147 16706 ft 336 kts 293°
2026-05-08 02:48 25.64178 -79.06530 16270 ft 335 kts 293°
2026-05-08 02:48 25.65074 -79.08909 15845 ft 334 kts 293°
2026-05-08 02:49 25.65964 -79.11284 15418 ft 334 kts 293°
2026-05-08 02:49 25.66855 -79.13662 14993 ft 334 kts 293°
2026-05-08 02:49 25.67744 -79.16040 14565 ft 334 kts 292°
2026-05-08 02:49 25.68632 -79.18417 14136 ft 334 kts 292°
2026-05-08 02:50 25.69525 -79.20798 13678 ft 335 kts 292°
2026-05-08 02:50 25.70419 -79.23180 13226 ft 334 kts 292°
2026-05-08 02:50 25.71306 -79.25551 12787 ft 333 kts 292°
2026-05-08 02:50 25.72191 -79.27919 12346 ft 332 kts 293°
2026-05-08 02:51 25.73073 -79.30281 11891 ft 331 kts 293°
2026-05-08 02:51 25.73948 -79.32641 11456 ft 331 kts 293°
2026-05-08 02:51 25.74817 -79.35000 11000 ft 328 kts 292°
2026-05-08 02:51 25.75670 -79.37324 10561 ft 325 kts 293°
2026-05-08 02:52 25.76515 -79.39637 10223 ft 319 kts 292°
2026-05-08 02:52 25.77321 -79.41850 9907 ft 303 kts 292°
2026-05-08 02:52 25.78101 -79.43989 9540 ft 296 kts 292°
2026-05-08 02:52 25.78863 -79.46077 9421 ft 296 kts 292°
2026-05-08 02:53 25.79637 -79.48189 9156 ft 295 kts 292°
2026-05-08 02:53 25.80408 -79.50295 8777 ft 294 kts 293°
2026-05-08 02:53 25.81175 -79.52393 8377 ft 293 kts 292°
2026-05-08 02:53 25.81938 -79.54484 7975 ft 292 kts 292°
2026-05-08 02:54 25.82701 -79.56566 7570 ft 291 kts 292°
2026-05-08 02:54 25.83461 -79.58644 7173 ft 290 kts 292°
2026-05-08 02:54 25.84215 -79.60710 6795 ft 288 kts 292°
2026-05-08 02:54 25.84977 -79.62759 6452 ft 286 kts 293°
2026-05-08 02:55 25.85748 -79.64790 6077 ft 282 kts 294°
2026-05-08 02:55 25.87390 -79.68674 6012 ft 277 kts 297°
2026-05-08 02:55 25.88233 -79.70593 6016 ft 277 kts 297°
2026-05-08 02:56 25.89076 -79.72512 6015 ft 276 kts 297°
2026-05-08 02:56 25.89911 -79.74428 6019 ft 275 kts 296°
2026-05-08 02:56 25.90735 -79.76338 6018 ft 274 kts 296°
2026-05-08 02:56 25.91553 -79.78250 6018 ft 274 kts 296°
2026-05-08 02:57 25.92369 -79.80164 6015 ft 275 kts 296°
2026-05-08 02:57 25.93193 -79.82092 6018 ft 277 kts 296°
2026-05-08 02:57 25.94018 -79.84027 6018 ft 277 kts 295°
2026-05-08 02:57 25.94841 -79.85966 6017 ft 278 kts 295°
2026-05-08 02:58 25.95665 -79.87905 6016 ft 277 kts 296°
2026-05-08 02:58 25.96487 -79.89841 6014 ft 277 kts 295°
2026-05-08 02:58 25.97308 -79.91777 6011 ft 277 kts 295°
2026-05-08 02:58 25.98131 -79.93719 6011 ft 278 kts 295°
2026-05-08 02:59 25.99088 -79.95574 6008 ft 277 kts 308°
2026-05-08 02:59 26.00365 -79.97179 6009 ft 277 kts 313°
2026-05-08 02:59 26.01659 -79.98766 6003 ft 277 kts 312°
2026-05-08 02:59 26.02948 -80.00358 6000 ft 277 kts 312°
2026-05-08 03:00 26.04234 -80.01949 5994 ft 277 kts 312°
2026-05-08 03:00 26.05522 -80.03542 5998 ft 277 kts 312°
2026-05-08 03:00 26.06792 -80.05113 5998 ft 277 kts 312°
2026-05-08 03:00 26.08080 -80.06711 5997 ft 277 kts 312°
2026-05-08 03:01 26.09368 -80.08310 5998 ft 277 kts 312°
2026-05-08 03:01 26.10655 -80.09907 5998 ft 277 kts 312°
2026-05-08 03:01 26.11940 -80.11499 6000 ft 277 kts 312°
2026-05-08 03:01 26.13226 -80.13092 6000 ft 277 kts 312°
2026-05-08 03:02 26.14329 -80.14839 6007 ft 277 kts 296°
2026-05-08 03:02 26.14936 -80.16873 6011 ft 278 kts 279°
2026-05-08 03:02 26.15042 -80.19023 6009 ft 280 kts 269°
2026-05-08 03:02 26.15046 -80.21191 6007 ft 280 kts 270°
2026-05-08 03:03 26.15055 -80.23326 6003 ft 268 kts 270°
2026-05-08 03:03 26.15065 -80.25331 6003 ft 250 kts 270°
2026-05-08 03:03 26.15075 -80.27203 6002 ft 234 kts 270°
2026-05-08 03:03 26.15070 -80.28951 6002 ft 218 kts 270°
2026-05-08 03:04 26.15069 -80.30586 5966 ft 206 kts 270°
2026-05-08 03:04 26.15065 -80.32149 5964 ft 192 kts 269°
2026-05-08 03:04 26.15056 -80.33594 6240 ft 196 kts 269°
2026-05-08 03:04 26.15057 -80.35083 6208 ft 191 kts 269°
2026-05-08 03:05 26.15065 -80.36558 6204 ft 190 kts 269°
2026-05-08 03:05 26.14949 -80.38012 6201 ft 188 kts 246°
2026-05-08 03:05 26.14135 -80.39100 6204 ft 186 kts 206°
2026-05-08 03:05 26.12898 -80.39406 6067 ft 184 kts 179°
2026-05-08 03:06 26.11612 -80.39316 5819 ft 186 kts 174°
2026-05-08 03:06 26.10319 -80.39153 5593 ft 187 kts 173°
2026-05-08 03:06 26.09073 -80.38779 5364 ft 186 kts 143°
2026-05-08 03:06 26.08193 -80.37745 5131 ft 185 kts 117°
2026-05-08 03:07 26.07799 -80.36403 4946 ft 181 kts 92°
2026-05-08 03:07 26.07784 -80.35066 4840 ft 166 kts 88°
2026-05-08 03:07 26.07777 -80.33817 4642 ft 159 kts 88°
2026-05-08 03:07 26.07766 -80.32563 4249 ft 166 kts 90°
2026-05-08 03:08 26.07752 -80.31249 3845 ft 171 kts 89°
2026-05-08 03:08 26.07738 -80.29914 3475 ft 174 kts 90°
2026-05-08 03:08 26.07720 -80.28552 3040 ft 180 kts 90°
2026-05-08 03:08 26.07720 -80.27148 2640 ft 182 kts 90°
2026-05-08 03:09 26.07720 -80.25742 2244 ft 183 kts 90°
2026-05-08 03:09 26.07706 -80.24351 1910 ft 177 kts 91°
2026-05-08 03:09 26.07707 -80.23044 1704 ft 164 kts 90°
2026-05-08 03:09 26.07714 -80.21766 1229 ft 164 kts 91°
2026-05-08 03:10 26.07723 -80.20519 809 ft 161 kts 92°
2026-05-08 03:10 26.07721 -80.19299 531 ft 151 kts 92°
2026-05-08 03:10 26.07710 -80.18170 327 ft 140 kts 93°
2026-05-08 03:10 26.07705 -80.17125 138 ft 130 kts 92°
2026-05-08 03:11 26.07696 -80.16139 37 ft 125 kts 94°
2026-05-08 03:11 26.07685 -80.15214 18 ft 108 kts 91°
2026-05-08 03:11 26.07682 -80.14574 24 ft 58 kts 91°
2026-05-08 03:11 26.07683 -80.14312 27 ft 22 kts 89°
2026-05-08 03:12 26.07644 -80.14234 25 ft 8 kts 162°
2026-05-08 03:12 26.07589 -80.14233 28 ft 8 kts 182°
2026-05-08 03:12 26.07585 -80.14233 28 ft 0 kts 182°
2026-05-08 03:13 26.07577 -80.14233 26 ft 4 kts 183°
2026-05-08 03:13 26.07543 -80.14263 26 ft 8 kts 235°
2026-05-08 03:13 26.07527 -80.14244 24 ft 6 kts 89°
2026-05-08 03:13 26.07496 -80.14193 24 ft 11 kts 127°
2026-05-08 03:14 26.07487 -80.14112 24 ft 8 kts 87°
2026-05-08 03:14 26.07487 -80.14069 23 ft 6 kts 95°
2026-05-08 03:14 26.07486 -80.14054 23 ft 0 kts 95°
2026-05-08 03:14 26.07485 -80.14035 23 ft 0 kts 92°
2026-05-08 03:16 26.07485 -80.14034 22 ft 1 kts 92°
2026-05-08 03:16 26.07485 -80.14033 22 ft 0 kts 92°
2026-05-08 03:16 26.07485 -80.14030 22 ft 2 kts 92°
2026-05-08 03:16 26.07485 -80.13985 21 ft 8 kts 89°
2026-05-08 03:17 26.07485 -80.13981 21 ft 0 kts 89°
2026-05-08 03:17 26.07485 -80.13979 21 ft 1 kts 89°
2026-05-08 03:17 26.07481 -80.13965 20 ft 3 kts 112°
2026-05-08 03:17 26.07465 -80.13959 21 ft 3 kts 173°
2026-05-08 03:18 26.07439 -80.13958 20 ft 6 kts 179°
2026-05-08 03:18 26.07390 -80.13958 20 ft 6 kts 180°
2026-05-08 03:18 26.07386 -80.13958 20 ft 1 kts 180°
2026-05-08 03:18 26.07375 -80.13962 20 ft 1 kts 207°
2026-05-08 03:19 26.07370 -80.13971 21 ft 2 kts 238°
2026-05-08 03:19 26.07368 -80.13998 21 ft 3 kts 269°
2026-05-08 03:19 26.07369 -80.14013 22 ft 1 kts 270°
2026-05-08 03:19 26.07369 -80.14019 22 ft 2 kts 270°
2026-05-08 03:20 26.07369 -80.14020 22 ft 0 kts 270°